"Pseudo-MPEC" for GG0416

Created 2023 Oct 1 16:22:08 UT using Find_Orb

Click here for an explanation of pseudo-MPECs

 
 Astrometry: 
     GG0416 *MC2023 09 18`4AstrometryhZJ@XdT#iE(GAeredacted;XCu\/87V=QAHlbpSPQ62
     GG0416  MC2023 09 18^gUclickX?f#b2_/S$heregforPyJ_l;ocmexplanationke9-[lQ62

Station data:
(Q62) iTelescope Observatory, Siding Spring  (S31.273286 E149.064420)
   Australia/NSW.  Observers H. Sato, T. Prystavski, M. Mattiazzo, A. Pearce,
   F. D. Romanov. 0.51-m f/6.8 astrograph + CCD + f/4.5 focal reducer0.43-m
   f/6.8 astrograph + CCD + focal reducer0.43-m f/6.8 astrograph + CCD0.10-m
   f/5 astrograph + CCD0.127-m f/5.6 refractor + CCD0.50-m f/6.8 reflector +
   CCD0.30-m f/9 reflector + CCD.

Orbital elements:  GG0416
   Perihelion 2024 Jan 31.21966 +/- 84.8 TT =  5:16:18 (JD 2460340.71966)
Epoch 2023 Sep 18.0 TT = JDT 2460205.5   Earth MOID: 0.2925   Ma: 0.0782
M 272.99439214 +/- 80               (J2000 ecliptic)             AutoNEOCP
n   0.64343902 +/- 0.38             Peri.   86.79889 +/- 90
a   1.32881478 +/- 0.524            Node     3.88187 +/- 58
e   0.1141436 +/- 0.28              Incl.   28.55769 +/- 21
P   1.53/559.48d           H 20.46  G  0.15   U 12.1  SR
q 1.17713903 +/- 0.4    Q 1.48049053 +/- 24.9
From 2 observations 2023 Sept. 18 (15.5 min); mean residual 0".01
Residuals in arcseconds: 
230918 Q62  .01-  .00     230918 Q62  .01-  .00     

Ephemerides (geocentric):
Date (UTC) HH   RA             Dec           delta  r     elong  mag " sig PA
---- --------  ------------   ------------  ------ ------ -----  --- --------
2023 10 01 16  22 45 57.129   -16 27 13.17  .35433 1.3149 147.9 19.9  37d  69
2023 10 01 17  22 45 47.624   -16 24 52.80  .35439 1.3148 147.8 19.9  37d  69
2023 10 01 18  22 45 38.131   -16 22 32.41  .35446 1.3147 147.8 19.9  37d  69
2023 10 01 19  22 45 28.651   -16 20 11.99  .35453 1.3147 147.7 19.9  37d  69
2023 10 01 20  22 45 19.183   -16 17 51.56  .35460 1.3146 147.7 19.9  37d  69
2023 10 01 21  22 45 09.728   -16 15 31.10  .35466 1.3145 147.6 19.9  37d  69
2023 10 01 22  22 45 00.285   -16 13 10.61  .35473 1.3144 147.6 19.9  37d  69
2023 10 01 23  22 44 50.854   -16 10 50.11  .35480 1.3144 147.5 19.9  37d  69
2023 10 02 00  22 44 41.436   -16 08 29.59  .35487 1.3143 147.5 19.9  37d  69
2023 10 02 01  22 44 32.031   -16 06 09.04  .35494 1.3142 147.4 19.9  37d  69
2023 10 02 02  22 44 22.637   -16 03 48.48  .35501 1.3142 147.4 19.9  37d  69
2023 10 02 03  22 44 13.257   -16 01 27.90  .35508 1.3141 147.3 19.9  37d  69
2023 10 02 04  22 44 03.888   -15 59 07.30  .35516 1.3140 147.3 19.9  37d  69
2023 10 02 05  22 43 54.532   -15 56 46.68  .35523 1.3139 147.3 19.9  37d  69
2023 10 02 06  22 43 45.189   -15 54 26.05  .35530 1.3139 147.2 19.9  37d  69
2023 10 02 07  22 43 35.858   -15 52 05.39  .35537 1.3138 147.2 19.9  38d  69
2023 10 02 08  22 43 26.540   -15 49 44.73  .35545 1.3137 147.1 19.9  38d  69
2023 10 02 09  22 43 17.235   -15 47 24.05  .35552 1.3137 147.1 19.9  38d  69
2023 10 02 10  22 43 07.942   -15 45 03.35  .35560 1.3136 147.0 19.9  38d  69
2023 10 02 11  22 42 58.661   -15 42 42.64  .35567 1.3135 147.0 19.9  38d  69
2023 10 02 12  22 42 49.394   -15 40 21.91  .35575 1.3134 146.9 20.0  38d  69
2023 10 02 13  22 42 40.138   -15 38 01.17  .35582 1.3134 146.9 20.0  38d  69
2023 10 02 14  22 42 30.896   -15 35 40.42  .35590 1.3133 146.8 20.0  38d  69
2023 10 02 15  22 42 21.666   -15 33 19.66  .35598 1.3132 146.8 20.0  38d  69
2023 10 02 16  22 42 12.449   -15 30 58.89  .35605 1.3132 146.7 20.0  38d  69
2023 10 02 17  22 42 03.244   -15 28 38.10  .35613 1.3131 146.7 20.0  38d  69
2023 10 02 18  22 41 54.053   -15 26 17.31  .35621 1.3130 146.6 20.0  38d  69
2023 10 02 19  22 41 44.874   -15 23 56.51  .35629 1.3129 146.6 20.0  38d  69
2023 10 02 20  22 41 35.707   -15 21 35.69  .35637 1.3129 146.5 20.0  38d  69
2023 10 02 21  22 41 26.554   -15 19 14.87  .35645 1.3128 146.5 20.0  38d  69
2023 10 02 22  22 41 17.413   -15 16 54.04  .35653 1.3127 146.4 20.0  38d  69
2023 10 02 23  22 41 08.285   -15 14 33.21  .35661 1.3127 146.4 20.0  38d  69
2023 10 03 00  22 40 59.170   -15 12 12.37  .35669 1.3126 146.3 20.0  38d  69
2023 10 03 01  22 40 50.068   -15 09 51.52  .35677 1.3125 146.3 20.0  38d  69
2023 10 03 02  22 40 40.978   -15 07 30.66  .35685 1.3124 146.2 20.0  38d  69
2023 10 03 03  22 40 31.902   -15 05 09.80  .35693 1.3124 146.1 20.0  38d  69
2023 10 03 04  22 40 22.838   -15 02 48.94  .35702 1.3123 146.1 20.0  38d  69
2023 10 03 05  22 40 13.787   -15 00 28.07  .35710 1.3122 146.0 20.0  38d  69
2023 10 03 06  22 40 04.749   -14 58 07.20  .35718 1.3122 146.0 20.0  38d  69
2023 10 03 07  22 39 55.723   -14 55 46.33  .35727 1.3121 145.9 20.0  39d  69
2023 10 03 08  22 39 46.711   -14 53 25.45  .35735 1.3120 145.9 20.0  39d  69
2023 10 03 09  22 39 37.712   -14 51 04.57  .35744 1.3119 145.8 20.0  39d  69
2023 10 03 10  22 39 28.725   -14 48 43.70  .35753 1.3119 145.8 20.0  39d  69
2023 10 03 11  22 39 19.752   -14 46 22.82  .35761 1.3118 145.7 20.0  39d  69
2023 10 03 12  22 39 10.791   -14 44 01.94  .35770 1.3117 145.7 20.0  39d  69
2023 10 03 13  22 39 01.844   -14 41 41.06  .35779 1.3117 145.6 20.0  39d  69
2023 10 03 14  22 38 52.909   -14 39 20.18  .35787 1.3116 145.6 20.0  39d  69
2023 10 03 15  22 38 43.987   -14 36 59.31  .35796 1.3115 145.5 20.0  39d  69